Total_Precipitation_Accumulation
0.02 0.04 0.06 0.07 0.08 0.09 0.07 0.06 0.17 0.15 0.16 0.12 0.05 0.03 0.03 0.02 0.02 0.02 0.02 0.02 0.02 0.02 0.02 0.02 0.02 0.04 0.11 0.15 0.16 0.23 0.43 0.54 0.43 0.28 0.20 0.14 0.11 0.14 0.19 0.27 0.33 0.47 0.63 0.74
0.01 0.04 0.04 0.06 0.09 0.08 0.05 0.04 0.04 0.05 0.08 0.04 0.03 0.03 0.03 0.04 0.03 0.03 0.03 0.02 0.02 0.02 0.02 0.02 0.03 0.04 0.04 0.07 0.13 0.22 0.37 0.49 0.44 0.34 0.22 0.14 0.12 0.14 0.21 0.28 0.34 0.42 0.51 0.52
0.02 0.04 0.04 0.11 0.11 0.08 0.05 0.04 0.05 0.07 0.08 0.05 0.06 0.05 0.06 0.08 0.06 0.04 0.03 0.02 0.02 0.02 0.01 0.02 0.03 0.05 0.07 0.07 0.10 0.23 0.39 0.48 0.49 0.44 0.33 0.25 0.17 0.18 0.25 0.30 0.35 0.41 0.41 0.43
0.02 0.03 0.09 0.11 0.06 0.06 0.06 0.06 0.07 0.07 0.07 0.08 0.09 0.08 0.08 0.09 0.06 0.04 0.03 0.02 0.02 0.02 0.02 0.03 0.03 0.05 0.06 0.08 0.11 0.20 0.32 0.44 0.51 0.49 0.45 0.43 0.34 0.33 0.37 0.40 0.43 0.47 0.44 0.45
0.04 0.04 0.08 0.09 0.09 0.11 0.10 0.09 0.10 0.10 0.10 0.10 0.10 0.09 0.09 0.08 0.06 0.05 0.05 0.04 0.04 0.04 0.04 0.04 0.05 0.05 0.06 0.07 0.11 0.17 0.26 0.41 0.51 0.52 0.51 0.50 0.48 0.48 0.52 0.56 0.52 0.50 0.50 0.53
0.06 0.10 0.14 0.12 0.14 0.16 0.14 0.19 0.17 0.13 0.11 0.10 0.11 0.16 0.13 0.09 0.08 0.07 0.06 0.06 0.06 0.04 0.04 0.05 0.05 0.07 0.09 0.11 0.16 0.24 0.29 0.40 0.54 0.65 0.70 0.69 0.67 0.63 0.64 0.73 0.67 0.61 0.57 0.61
0.12 0.18 0.17 0.13 0.14 0.13 0.22 0.30 0.24 0.20 0.16 0.15 0.18 0.22 0.20 0.15 0.12 0.10 0.08 0.07 0.06 0.06 0.06 0.07 0.08 0.11 0.16 0.21 0.26 0.28 0.32 0.39 0.52 0.72 0.84 0.84 0.87 0.84 0.81 0.83 0.85 0.84 0.75 0.76
0.23 0.30 0.29 0.19 0.19 0.23 0.27 0.25 0.27 0.24 0.19 0.20 0.19 0.18 0.16 0.16 0.12 0.09 0.08 0.07 0.08 0.08 0.08 0.09 0.12 0.21 0.30 0.36 0.37 0.38 0.43 0.50 0.62 0.75 0.69 0.70 0.94 0.99 1.01 1.07 1.05 1.00 0.95 0.88
0.30 0.34 0.25 0.22 0.25 0.30 0.31 0.30 0.26 0.23 0.20 0.17 0.18 0.17 0.13 0.13 0.13 0.11 0.08 0.08 0.09 0.11 0.14 0.16 0.23 0.38 0.51 0.51 0.51 0.51 0.54 0.60 0.66 0.73 0.84 0.97 1.06 1.08 1.11 1.17 1.18 1.09 1.05 1.00
0.24 0.28 0.28 0.30 0.30 0.24 0.19 0.19 0.19 0.17 0.13 0.11 0.11 0.11 0.11 0.12 0.11 0.10 0.08 0.08 0.10 0.16 0.25 0.33 0.43 0.55 0.64 0.63 0.62 0.61 0.61 0.63 0.67 0.78 0.88 1.01 1.18 1.24 1.24 1.20 1.20 1.17 1.10 1.04
0.24 0.27 0.27 0.30 0.28 0.17 0.13 0.09 0.07 0.08 0.07 0.07 0.09 0.10 0.10 0.10 0.10 0.11 0.10 0.13 0.17 0.23 0.32 0.40 0.53 0.63 0.63 0.65 0.72 0.75 0.72 0.71 0.73 0.81 0.97 1.06 1.17 1.26 1.26 1.29 1.14 1.07 0.99 0.95
0.24 0.22 0.22 0.23 0.16 0.11 0.09 0.08 0.08 0.09 0.08 0.08 0.10 0.11 0.10 0.10 0.10 0.09 0.10 0.15 0.23 0.32 0.40 0.47 0.58 0.71 0.75 0.83 0.92 0.98 0.94 0.86 0.84 0.88 1.01 1.10 1.18 1.17 1.00 0.93 0.75 0.67 0.66 0.63
0.17 0.18 0.21 0.20 0.13 0.10 0.09 0.09 0.10 0.10 0.10 0.09 0.09 0.08 0.08 0.08 0.08 0.09 0.12 0.18 0.29 0.41 0.48 0.55 0.62 0.73 0.84 0.97 1.07 1.14 1.10 1.00 0.91 0.88 0.94 1.00 1.09 1.23 1.26 1.03 0.77 0.61 0.54 0.47
0.17 0.19 0.20 0.18 0.14 0.10 0.10 0.10 0.09 0.08 0.09 0.09 0.08 0.09 0.09 0.08 0.09 0.12 0.17 0.24 0.32 0.41 0.48 0.55 0.64 0.72 0.83 0.98 1.07 1.11 1.11 0.99 0.90 0.89 0.92 0.95 1.00 1.14 1.29 1.30 1.08 0.77 0.62 0.52
0.20 0.17 0.15 0.12 0.11 0.10 0.10 0.09 0.09 0.10 0.10 0.10 0.09 0.09 0.09 0.09 0.12 0.16 0.21 0.30 0.43 0.49 0.52 0.58 0.69 0.74 0.88 1.05 1.11 1.09 1.04 0.96 0.87 0.89 0.92 0.90 0.95 1.03 1.14 1.21 1.14 1.00 0.83 0.65
0.23 0.16 0.13 0.13 0.12 0.12 0.11 0.09 0.08 0.08 0.09 0.09 0.09 0.08 0.09 0.10 0.14 0.17 0.25 0.43 0.65 0.69 0.65 0.68 0.72 0.75 0.93 1.11 1.13 1.09 0.99 0.79 0.71 0.76 0.82 0.84 0.92 1.00 1.04 1.11 1.11 1.05 0.93 0.70
0.21 0.18 0.16 0.14 0.12 0.10 0.08 0.08 0.09 0.08 0.09 0.11 0.10 0.09 0.09 0.13 0.20 0.28 0.40 0.52 0.62 0.65 0.67 0.74 0.71 0.71 0.87 1.02 1.07 1.03 0.93 0.78 0.59 0.59 0.69 0.76 0.86 0.94 0.97 0.98 1.01 0.99 0.84 0.59
0.15 0.13 0.11 0.09 0.08 0.08 0.08 0.09 0.08 0.08 0.09 0.11 0.13 0.15 0.18 0.26 0.41 0.55 0.66 0.69 0.67 0.58 0.58 0.63 0.60 0.63 0.78 0.84 0.90 0.96 0.91 0.83 0.67 0.59 0.62 0.67 0.75 0.86 0.87 0.85 0.85 0.83 0.73 0.53
0.08 0.08 0.07 0.06 0.05 0.05 0.06 0.07 0.07 0.07 0.08 0.11 0.15 0.21 0.27 0.38 0.54 0.69 0.77 0.88 0.91 0.80 0.64 0.56 0.52 0.56 0.70 0.73 0.76 0.88 0.88 0.79 0.68 0.61 0.63 0.62 0.66 0.76 0.77 0.74 0.71 0.67 0.60 0.53
0.06 0.06 0.06 0.05 0.04 0.04 0.04 0.05 0.07 0.08 0.10 0.14 0.21 0.27 0.37 0.52 0.69 0.83 0.89 0.93 0.95 0.92 0.74 0.60 0.53 0.54 0.60 0.66 0.73 0.77 0.80 0.76 0.64 0.59 0.61 0.66 0.67 0.69 0.65 0.62 0.59 0.55 0.50 0.48
0.04 0.04 0.04 0.03 0.02 0.02 0.03 0.04 0.08 0.12 0.16 0.21 0.30 0.39 0.50 0.64 0.78 0.93 1.14 1.15 0.93 0.83 0.70 0.60 0.55 0.53 0.55 0.62 0.68 0.74 0.77 0.78 0.68 0.58 0.57 0.60 0.61 0.62 0.60 0.58 0.53 0.46 0.45 0.45
0.03 0.02 0.02 0.02 0.02 0.03 0.04 0.06 0.11 0.19 0.28 0.34 0.37 0.45 0.59 0.71 0.85 0.99 1.08 1.24 1.13 0.98 0.73 0.58 0.50 0.47 0.47 0.53 0.58 0.67 0.70 0.73 0.66 0.57 0.52 0.52 0.54 0.60 0.61 0.55 0.49 0.42 0.41 0.42
0.01 0.01 0.02 0.03 0.04 0.05 0.05 0.08 0.14 0.27 0.40 0.49 0.52 0.59 0.73 0.79 0.92 1.23 1.30 1.16 1.11 0.99 0.70 0.54 0.51 0.43 0.39 0.42 0.51 0.59 0.61 0.63 0.61 0.51 0.44 0.43 0.45 0.51 0.55 0.52 0.49 0.42 0.39 0.38
0.02 0.02 0.03 0.04 0.05 0.08 0.11 0.16 0.22 0.33 0.42 0.46 0.46 0.54 0.70 0.79 0.80 0.88 1.09 1.21 1.15 0.99 0.73 0.59 0.50 0.42 0.36 0.36 0.49 0.59 0.62 0.61 0.59 0.47 0.38 0.36 0.40 0.47 0.49 0.48 0.47 0.42 0.38 0.36
0.02 0.03 0.04 0.05 0.10 0.18 0.27 0.35 0.44 0.49 0.53 0.53 0.46 0.44 0.55 0.70 0.81 0.78 0.82 0.95 1.07 0.96 0.79 0.66 0.55 0.50 0.40 0.38 0.47 0.56 0.59 0.58 0.51 0.43 0.39 0.42 0.47 0.50 0.47 0.44 0.42 0.37 0.37 0.37
0.03 0.04 0.05 0.06 0.12 0.25 0.41 0.57 0.73 0.75 0.76 0.75 0.62 0.49 0.50 0.56 0.61 0.66 0.71 0.77 0.84 0.85 0.76 0.71 0.61 0.54 0.48 0.47 0.49 0.54 0.59 0.61 0.53 0.47 0.48 0.53 0.54 0.51 0.49 0.42 0.37 0.36 0.35 0.33
0.03 0.04 0.05 0.09 0.17 0.30 0.47 0.63 0.79 0.85 0.85 0.88 0.76 0.56 0.48 0.50 0.52 0.56 0.63 0.70 0.72 0.73 0.72 0.67 0.61 0.53 0.48 0.48 0.49 0.52 0.56 0.58 0.55 0.52 0.50 0.50 0.51 0.50 0.48 0.44 0.40 0.38 0.37 0.32